Location: ????????
(56.1167°N, 38.6333°E)
Time: 21:36:37
(UTC+00:00)

YAOGAN 1 - Pass Details

Date: 18 November 2025
Orbit: 605 x 607 km, 97.8° (Epoch: 14 December)

Event Time Altitude Azimuth Distance (km) Brightness Sun altitude
Rises 15:06:52 0° 149° (SSE) 2,859 5.8 -15.5°
Reaches altitude 10° 15:09:04 10° 145° (SE) 1,959 4.9 -15.8°
Maximum altitude 15:13:13 53° 68° (ENE) 750 2.6 -16.3°
Drops below altitude 10° 15:17:23 10° 352° (N) 1,973 5.1 -16.9°
Sets 15:19:36 0° 348° (NNW) 2,881 6.0 -17.2°
